Showing default

IRIDIUM 109, 41919

Orbit data source: Space-Track

IRIDIUM 109, 41919 is a payload satellite owned by Iridium (US) in LEO that was launched on Sat, 14 Jan 2017 UTC via an FALCON 9 launch vehicle from the Air Force Western Test Range (AFWTR). Payload-class satellites include a variety of spacecraft equipped with specific instruments for various scientific and technological missions. These include communications satellites like Starlink; space stations such as the ISS; scientific satellites like the Hubble; Earth observation satellites from companies like Planet Labs, Umbra, and HawkEye 360; GPS; miniature CubeSats for education and research; and military/defense satellites.

Loading next visibility...
Identifier
41919, 2017-003C
Orbit
LEO
Country
Flag of USUS
Related business
Manufacturer
OATK SSG Gilbert
Mission
Operational Commercial Communications
Bus & Motor
ELITEBUS, Unknown motor
Mass
860 kg wet, 700 kg dry
Launch date (UTC)
2017-01-14 (9 years ago)
Launch vehicle
FALCON 9
Launch site
Air Force Western Test Range (AFWTR)
Object type
Payload
Rocket body
Debris
Shape & HBR
Trap Box + 2 Pan, 4.8 m
Radar Cross Section
10.154 m², Large (>1 m²)

Expand to show TLE details & history
Last TLE update: 7 hours ago

TLE from 7 hours ago
0 IRIDIUM 109
1 41919U 17003C   25311.15548824  .00000144  00000-0  44305-4 0  9993
2 41919  86.4016 181.2637 0002133  81.3132 278.8306 14.34218489461375
Epoch: 2025-11-07T03:43Z
TLE epoch observation values (Epoch: 2025-11-07T03:43:54.183Z)
Latitude
0.00001°
Longitude
78.68443°
Altitude
780.482 km
Speed
7.464 km/s
True Right ascension
12h 05m 03s
True Declination
0° 00' 00"
Sunlit
Object was in daylight at epoch
Visualization orbit readout
Latitude
Unknown
Longitude
Unknown
Altitude
Unknown
Speed
Unknown
Apparent Right ascension
Unknown
Apparent Declination
Unknown
Sunlit
N/A
Visualization observer readout
Local Sidereal Time
07:07:17
Azimuth
Unknown
Elevation
Unknown
Doppler factor
Unknown
Orbital elements
Apogee altitude
776.155 km
Perigee altitude
773.103 km
Semi-major axis
7,152.766 km
Eccentricity
0.00021
Inclination
86.4016°
RAAN
181.2637°
Arg. of periapsis
81.3132°
True anomaly
278.80645°
Mean anomaly
278.8306°
Eccentric anomaly
278.81852°
Mean motion
3.58783 °/min
Orbital period
100.34 mins
BSTAR
0.000044305
Loading maneuver chart data...
Computing Atmospheric mass density...
Loading historical data...
Loading historical data...
Loading historical data...
Loading historical data...
Loading historical data...
Loading historical data...
Loading historical data...

Documentation

Showing up to 5 results
|